Location: *
(51.8167°N, 12.5000°E)
Time: 21:04:19
(UTC+00:00)

USA 267 - Pass Details

Date: 16 September 2019
Orbit: 1102 x 1106 km, 123.0° (Epoch: 08 October)

Event Time Altitude Azimuth Distance (km) Brightness Sun altitude
Rises 22:39:38 0° 61° (ENE) 3,928 6.4 -35.5°
Reaches altitude 10° 22:42:07 10° 61° (ENE) 2,968 5.7 -35.5°
Enters shadow 22:45:46 37° 63° (ENE) 1,661 4.2 -35.6°
